Temp
52 52 52 52 52 52 52 53 53 53 54 55 56 56 56 56 56 52 50 52 53 49 54 62 67 61 61 58 54 59 57 57 52 49 47 45 44 47 46 48 45 44 41 40 43 40 41 60 60 52 55 58 59 59
52 52 52 52 52 52 52 52 53 53 53 54 55 56 56 56 56 54 46 54 56 50 55 61 69 72 71 69 60 57 58 56 56 51 48 47 46 47 46 43 49 44 47 44 46 45 53 58 55 60 59 60 58 58
52 52 52 52 52 52 52 52 53 53 53 54 55 55 56 56 55 53 46 46 49 50 54 55 61 68 69 71 73 59 58 61 58 59 52 51 51 49 46 45 46 50 52 48 49 53 57 63 61 61 62 59 61 61
52 52 52 52 52 52 52 52 52 53 53 54 54 55 55 55 55 55 46 48 49 50 46 53 67 65 72 68 68 66 65 64 62 60 54 51 50 53 47 50 48 50 51 49 51 55 59 62 63 62 65 62 63 63
51 51 52 52 52 52 52 52 52 53 53 54 55 55 55 55 54 52 50 48 53 52 48 51 60 67 69 68 69 68 64 62 61 57 54 55 53 52 50 51 49 52 50 47 46 54 55 57 62 65 63 60 62 61
51 51 51 51 51 51 51 51 52 53 53 54 55 55 54 54 53 48 49 49 52 52 48 48 60 62 64 65 66 64 65 61 61 58 54 55 57 54 48 47 53 54 54 57 55 61 61 61 61 63 59 60 60 58
51 51 51 51 51 51 52 52 52 53 53 54 54 53 53 53 48 49 51 53 51 50 51 51 53 63 67 66 62 63 61 61 62 57 53 53 54 52 47 44 52 55 57 59 62 59 57 57 55 59 60 59 58 57
50 50 50 51 51 52 52 52 52 53 53 53 53 53 53 52 51 46 50 53 55 50 52 49 53 57 65 59 58 57 55 56 56 54 53 53 52 51 46 51 53 59 61 61 62 59 56 56 57 55 57 55 52 51
50 50 50 50 51 52 52 52 52 53 53 53 53 53 49 48 43 50 58 56 60 57 50 52 49 50 63 58 57 57 56 53 55 52 51 52 50 48 50 52 56 60 58 58 59 58 55 52 52 52 52 52 49 48
50 50 50 50 51 52 52 52 52 53 53 53 49 48 48 50 57 58 56 53 51 53 52 50 54 53 59 56 56 56 56 54 50 50 52 50 47 52 53 55 57 60 61 59 52 50 50 50 50 49 49 50 48 47
50 50 50 50 51 52 52 52 52 52 52 46 45 46 52 55 55 53 53 52 51 50 52 52 60 58 61 56 53 58 51 51 48 49 50 45 47 50 55 55 57 57 56 55 54 52 51 50 48 48 48 48 47 46
50 50 50 50 50 52 52 52 52 50 46 46 47 48 48 52 52 51 51 53 52 52 55 54 56 59 59 60 59 55 54 53 48 53 51 44 50 53 54 54 54 55 55 54 53 50 50 49 48 48 47 46 45 45
50 50 50 50 51 52 52 52 52 51 50 48 46 47 49 50 42 48 47 50 50 55 57 57 55 58 57 58 56 56 55 49 54 46 44 48 51 52 52 52 50 50 52 52 52 51 50 48 48 47 45 46 46 45
49 50 50 50 51 52 52 52 52 50 46 43 47 37 45 48 50 51 53 53 55 55 55 55 56 57 56 56 56 56 52 55 47 44 45 46 49 52 52 51 50 48 49 49 49 49 48 46 44 44 43 44 43 41
49 49 50 51 51 52 52 52 52 48 45 44 48 40 48 54 55 55 55 54 55 55 54 55 56 56 55 55 54 53 51 46 45 44 45 46 48 49 47 46 45 46 47 47 48 47 46 44 42 41 41 41 41 41
49 50 50 52 52 51 51 51 48 47 47 47 48 48 52 52 51 54 54 53 54 54 55 55 54 55 52 51 48 45 45 44 43 44 45 46 46 46 45 46 45 46 47 47 46 44 42 41 39 38 40 39 39 39
49 47 51 51 51 51 50 48 46 46 47 51 50 53 52 53 52 52 53 52 56 55 53 55 53 50 52 47 45 46 43 43 44 44 45 46 45 45 46 48 48 48 44 42 41 40 39 39 39 38 36 36 36 37
47 48 52 51 50 49 48 47 48 50 48 51 50 51 50 49 50 50 51 51 56 55 53 49 52 46 45 43 42 44 43 44 46 44 44 45 46 46 46 45 47 47 44 42 39 38 37 36 35 33 33 34 35 35
49 49 52 51 50 50 48 48 49 48 52 53 55 53 51 48 49 50 51 52 51 52 50 48 45 43 43 45 44 43 44 44 43 44 45 47 46 47 48 46 45 42 38 37 36 35 34 35 34 32 33 32 32 33
49 50 51 50 52 50 51 50 53 51 53 53 55 53 51 50 52 49 48 48 50 49 45 42 41 43 44 44 46 45 46 46 43 42 43 45 46 46 44 40 36 35 36 35 35 36 33 33 34 33 33 33 31 32
49 49 50 49 49 50 51 51 51 52 53 53 54 52 50 51 47 45 43 45 42 42 41 44 44 46 48 49 50 49 48 48 46 45 43 42 42 37 36 35 35 34 33 32 32 32 33 32 32 33 32 32 33 33
48 51 49 49 49 54 52 53 51 54 53 52 55 54 50 46 42 41 44 40 40 41 43 46 46 48 48 47 48 49 49 48 47 45 43 41 36 34 34 34 34 32 32 31 31 31 31 32 33 33 33 33 34 33
50 50 53 53 51 48 47 54 52 53 50 51 53 50 46 44 44 46 39 41 41 45 46 47 48 50 48 49 49 49 48 46 42 41 41 35 34 34 33 33 33 32 31 32 31 31 31 33 33 33 33 33 32 31
50 52 52 51 50 45 54 51 53 53 53 51 52 48 45 42 44 41 36 38 41 44 44 45 47 46 46 46 44 44 44 42 41 36 35 35 33 31 32 32 32 32 32 32 31 31 32 32 34 33 33 32 32 30
46 49 49 42 55 52 52 52 52 53 51 52 51 47 46 46 40 37 35 36 40 41 43 44 44 45 43 42 40 35 37 37 35 33 33 33 32 31 30 31 31 32 32 31 31 31 31 32 32 32 33 32 31 32
45 51 45 55 55 54 53 51 52 51 50 50 50 48 47 43 37 34 36 37 39 41 41 41 41 43 42 42 34 34 35 35 35 33 31 33 33 31 29 28 28 30 33 31 30 31 32 33 32 33 33 34 33 33
47 52 50 52 51 53 51 51 50 49 48 48 48 47 44 35 32 34 38 41 41 42 43 43 43 42 40 35 35 35 35 35 35 35 34 33 34 34 33 30 29 31 33 34 34 33 33 33 32 33 33 33 33 33
54 49 43 43 43 43 45 43 41 39 39 40 44 37 36 35 34 38 40 43 44 44 44 43 39 38 36 36 35 35 34 35 36 35 34 33 33 34 35 35 35 35 35 35 34 34 33 33 32 33 33 32 32 34
47 48 47 40 40 39 38 38 36 39 40 40 38 34 34 38 40 40 42 43 42 40 41 37 35 36 35 34 34 33 34 34 33 30 29 28 28 30 33 33 33 34 34 33 33 33 34 34 32 32 33 32 32 32
43 47 40 39 37 34 37 40 39 42 41 41 40 40 35 36 39 43 43 43 42 36 36 36 35 35 33 33 32 34 34 34 34 32 29 29 29 32 32 33 33 33 32 32 32 32 32 32 32 31 32 31 31 31
48 45 41 40 37 39 41 43 43 43 42 40 41 37 33 34 36 39 39 37 37 37 36 34 34 34 34 33 32 31 31 33 35 36 35 33 32 33 33 33 33 32 32 32 31 30 30 30 29 29 30 29 30 30
47 43 40 37 38 43 44 40 39 38 36 37 35 36 36 34 32 36 38 37 37 35 32 34 34 34 35 34 34 34 33 34 34 35 37 35 33 34 33 31 31 32 32 32 31 30 29 29 29 29 29 29 28 28
42 42 42 42 41 42 44 43 40 38 37 37 37 38 37 33 31 35 38 37 36 35 35 35 35 35 37 37 36 35 34 35 33 32 32 31 29 29 30 31 33 34 31 30 29 29 28 28 28 28 28 28 28 28
MSLP
1027.11 1026.95 1026.68 1026.34 1025.96 1025.38 1025.26 1024.98 1024.72 1024.35 1023.86 1023.35 1022.94 1022.44 1021.97 1021.63 1021.35 1021.22 1020.43 1019.81 1019.84 1019.07 1016.40 1014.76 1013.87 1013.27 1012.99 1013.14 1013.18 1012.77 1012.95 1013.01 1013.86 1015.05 1016.02 1016.72 1016.80 1016.30 1016.15 1015.72 1015.81 1016.25 1016.57 1016.49 1016.14 1015.43 1014.01 1012.87 1012.73 1012.49 1012.18 1011.69 1011.53 1011.64
1026.56 1026.45 1026.20 1025.94 1025.61 1025.02 1024.78 1024.61 1024.40 1024.07 1023.61 1023.11 1022.72 1022.32 1021.87 1021.57 1021.41 1021.20 1020.97 1019.73 1019.64 1019.58 1016.51 1014.51 1013.36 1012.42 1012.21 1012.18 1012.85 1012.88 1013.09 1013.20 1013.64 1014.86 1015.85 1016.32 1016.44 1016.34 1016.24 1016.24 1016.13 1016.29 1016.10 1016.09 1015.99 1015.14 1013.92 1013.26 1012.68 1011.98 1011.71 1011.61 1011.72 1011.82
1026.10 1025.89 1025.65 1025.42 1025.16 1024.65 1024.31 1024.16 1023.98 1023.67 1023.26 1022.79 1022.42 1022.09 1021.70 1021.41 1021.29 1021.27 1021.04 1020.53 1019.85 1019.03 1016.19 1014.32 1012.10 1011.17 1011.02 1011.03 1011.41 1012.40 1012.52 1012.15 1012.95 1013.07 1014.63 1015.43 1015.88 1015.61 1016.08 1016.10 1016.00 1015.83 1015.65 1015.71 1015.26 1014.30 1013.81 1013.03 1012.64 1012.35 1012.09 1012.13 1011.73 1011.71
1025.46 1025.30 1025.11 1024.93 1024.67 1024.24 1023.91 1023.66 1023.49 1023.22 1022.84 1022.43 1022.08 1021.77 1021.45 1021.13 1020.94 1020.87 1020.92 1020.20 1020.13 1019.37 1017.96 1013.66 1011.65 1011.16 1010.07 1010.37 1010.87 1011.09 1011.39 1011.67 1012.11 1012.97 1014.03 1014.80 1015.21 1015.00 1015.69 1015.56 1015.92 1015.90 1015.74 1015.48 1015.06 1014.18 1013.70 1013.54 1013.18 1013.02 1013.07 1012.97 1012.60 1012.50
1024.92 1024.76 1024.62 1024.39 1024.12 1023.78 1023.45 1023.13 1023.01 1022.77 1022.43 1022.02 1021.67 1021.44 1021.18 1020.83 1020.44 1019.91 1019.34 1018.97 1018.76 1019.05 1017.78 1014.76 1012.14 1009.62 1009.33 1009.61 1010.24 1010.69 1011.29 1011.67 1012.27 1013.23 1013.92 1014.20 1014.14 1014.82 1015.42 1015.57 1015.57 1015.67 1015.61 1015.54 1015.20 1014.80 1014.59 1014.52 1013.81 1013.20 1013.42 1013.94 1013.75 1013.80
1024.43 1024.28 1024.06 1023.82 1023.51 1023.15 1022.92 1022.79 1022.54 1022.27 1022.00 1021.60 1021.31 1021.16 1020.95 1020.67 1020.22 1019.60 1018.71 1018.40 1018.54 1018.60 1017.98 1015.76 1011.93 1009.95 1009.44 1009.59 1010.13 1010.58 1010.94 1011.32 1011.84 1012.79 1013.39 1013.51 1013.59 1013.85 1015.21 1015.75 1015.58 1015.24 1015.26 1015.12 1014.95 1014.85 1014.56 1014.83 1014.51 1014.12 1014.40 1014.94 1015.02 1015.07
1023.95 1023.86 1023.58 1023.32 1022.99 1022.67 1022.40 1022.26 1022.05 1021.78 1021.48 1021.16 1020.93 1020.75 1020.57 1020.45 1020.53 1019.99 1018.68 1018.42 1018.47 1018.57 1017.76 1015.93 1013.04 1009.98 1009.07 1009.48 1010.31 1010.91 1010.93 1011.27 1011.81 1012.91 1013.57 1013.74 1013.98 1014.14 1015.16 1015.68 1015.38 1014.84 1014.74 1014.79 1014.67 1015.04 1015.34 1015.38 1015.64 1015.62 1015.66 1016.17 1016.22 1016.40
1023.25 1023.30 1023.08 1022.70 1022.38 1022.16 1021.89 1021.68 1021.55 1021.33 1021.03 1020.74 1020.43 1020.15 1019.91 1019.82 1019.64 1018.82 1016.20 1016.13 1018.03 1018.38 1017.38 1015.99 1013.25 1011.08 1009.31 1009.87 1010.59 1011.01 1011.47 1011.83 1012.57 1013.13 1013.56 1013.94 1014.55 1015.14 1015.89 1015.77 1015.26 1014.86 1014.27 1014.47 1014.94 1015.18 1015.81 1016.35 1016.49 1016.92 1017.04 1017.30 1017.33 1017.73
1022.45 1022.48 1022.32 1022.05 1021.77 1021.55 1021.42 1021.21 1021.08 1020.91 1020.65 1020.32 1019.97 1019.34 1019.25 1018.97 1018.64 1016.30 1015.27 1015.26 1016.25 1016.96 1016.39 1015.18 1013.76 1011.55 1009.84 1010.30 1010.75 1011.41 1011.74 1012.78 1013.40 1013.56 1014.00 1014.39 1015.46 1016.25 1016.37 1015.87 1015.42 1015.19 1014.81 1015.75 1016.13 1016.38 1016.99 1017.29 1017.91 1018.25 1018.42 1018.35 1018.61 1019.24
1021.73 1021.79 1021.60 1021.45 1021.18 1020.95 1020.92 1020.81 1020.73 1020.50 1020.20 1020.02 1019.92 1019.22 1018.17 1016.81 1015.90 1016.02 1015.47 1015.71 1016.22 1015.87 1015.41 1014.35 1012.80 1011.63 1010.68 1010.95 1011.28 1011.92 1012.25 1012.83 1013.43 1013.99 1014.27 1015.00 1016.68 1016.67 1016.28 1015.95 1015.59 1015.36 1015.43 1016.24 1017.16 1017.82 1018.24 1018.66 1019.02 1019.39 1019.68 1019.99 1020.22 1020.41
1020.97 1021.07 1020.92 1020.85 1020.66 1020.43 1020.34 1020.44 1020.40 1020.25 1019.63 1019.89 1019.67 1018.70 1016.65 1015.68 1015.74 1015.62 1015.14 1015.10 1014.88 1014.75 1013.42 1012.03 1011.45 1010.92 1010.37 1010.68 1011.44 1011.41 1012.04 1012.68 1013.34 1014.07 1014.57 1015.89 1017.04 1017.42 1017.22 1016.58 1016.23 1016.35 1016.76 1017.75 1018.41 1018.89 1019.41 1019.72 1020.05 1020.18 1020.55 1020.96 1021.05 1021.19
1020.16 1020.26 1020.24 1020.28 1020.17 1019.96 1019.93 1020.02 1020.11 1020.30 1019.95 1019.99 1019.97 1018.76 1017.54 1016.15 1015.28 1014.98 1014.08 1013.37 1013.29 1012.45 1011.11 1010.69 1009.93 1009.86 1009.56 1009.54 1010.25 1011.04 1011.42 1012.19 1013.08 1013.62 1014.84 1016.56 1017.43 1017.86 1017.81 1017.71 1017.91 1018.20 1018.36 1019.46 1019.56 1019.77 1020.35 1020.65 1020.78 1020.91 1021.15 1021.37 1021.53 1021.81
1019.19 1019.37 1019.59 1019.66 1019.56 1019.46 1019.48 1019.57 1019.70 1019.79 1019.79 1019.47 1019.30 1018.34 1016.70 1015.19 1014.59 1013.69 1012.71 1011.99 1011.47 1010.35 1009.75 1009.48 1009.49 1009.08 1009.32 1009.23 1009.70 1010.32 1011.10 1012.30 1012.84 1014.52 1016.19 1017.05 1017.80 1018.57 1018.82 1019.34 1019.68 1019.70 1019.66 1020.36 1020.45 1020.91 1021.26 1021.60 1021.77 1021.98 1021.99 1021.76 1021.81 1022.30
1018.32 1018.60 1018.84 1018.93 1018.89 1018.92 1019.04 1019.20 1019.42 1019.70 1020.01 1019.42 1018.17 1016.94 1015.44 1013.56 1012.33 1011.27 1010.77 1010.37 1009.75 1009.56 1009.48 1009.43 1009.32 1009.03 1008.98 1009.14 1009.54 1010.44 1011.71 1012.36 1014.04 1015.66 1016.94 1018.04 1018.68 1019.15 1019.77 1020.22 1020.35 1020.81 1021.02 1021.18 1021.39 1021.69 1022.07 1022.40 1022.86 1022.95 1022.78 1022.67 1022.77 1023.03
1017.59 1017.84 1018.01 1018.09 1018.14 1018.37 1018.69 1018.98 1019.27 1019.75 1019.47 1018.43 1016.63 1015.02 1013.02 1011.21 1010.56 1010.16 1009.93 1009.91 1009.51 1009.35 1009.40 1009.38 1009.31 1009.58 1009.79 1010.20 1010.76 1011.36 1012.64 1014.18 1015.47 1016.85 1018.18 1019.24 1019.88 1020.38 1021.06 1021.47 1021.42 1021.78 1021.90 1022.07 1022.29 1022.56 1022.95 1023.27 1023.52 1023.56 1023.44 1023.37 1023.41 1023.46
1016.93 1017.30 1017.03 1017.08 1017.42 1017.94 1018.44 1018.90 1019.26 1019.26 1018.22 1016.86 1015.24 1013.23 1011.45 1011.23 1010.75 1010.35 1010.18 1009.98 1009.72 1009.68 1009.53 1009.69 1010.35 1010.76 1011.58 1012.02 1012.53 1013.70 1014.64 1016.05 1017.43 1018.61 1019.59 1020.13 1020.81 1021.41 1021.75 1022.43 1022.50 1022.73 1022.72 1022.97 1023.18 1023.48 1023.70 1023.95 1024.00 1023.95 1023.86 1023.98 1023.94 1023.93
1016.31 1015.78 1015.33 1015.92 1016.93 1017.69 1018.26 1018.69 1018.90 1018.14 1016.62 1014.57 1012.79 1011.65 1011.53 1011.15 1010.97 1010.75 1010.57 1010.62 1010.00 1010.17 1010.57 1010.73 1011.48 1012.53 1012.60 1013.76 1014.94 1015.77 1016.87 1017.91 1018.89 1019.93 1020.72 1021.20 1021.47 1022.11 1022.62 1022.73 1022.77 1023.04 1023.36 1023.88 1024.07 1024.13 1024.28 1024.27 1024.18 1024.34 1024.47 1024.40 1024.22 1024.07
1015.02 1014.83 1014.97 1015.36 1016.55 1017.64 1018.21 1018.26 1017.48 1016.09 1014.68 1012.92 1012.30 1012.16 1011.96 1012.07 1011.72 1011.83 1011.75 1011.33 1010.63 1011.34 1012.01 1013.11 1013.42 1013.70 1015.26 1015.88 1016.57 1017.67 1018.70 1019.46 1020.31 1020.93 1021.41 1021.84 1022.19 1022.62 1022.85 1023.24 1023.55 1023.70 1024.18 1024.42 1024.43 1024.50 1024.59 1024.71 1024.77 1024.89 1024.81 1024.57 1024.34 1024.06
1014.35 1014.44 1014.63 1015.33 1015.63 1016.10 1016.49 1016.46 1016.03 1014.40 1012.48 1011.90 1011.96 1012.06 1012.48 1012.95 1013.27 1013.15 1012.80 1012.27 1011.98 1012.29 1013.69 1015.02 1015.71 1016.60 1017.30 1017.45 1017.87 1019.05 1019.77 1020.41 1020.98 1021.45 1021.99 1022.41 1022.72 1023.06 1023.36 1023.65 1024.08 1024.61 1024.71 1024.74 1024.89 1025.03 1025.08 1025.01 1025.09 1025.00 1024.83 1024.65 1024.65 1024.15
1014.29 1014.63 1014.83 1015.20 1015.38 1015.23 1014.76 1013.93 1013.35 1012.66 1011.35 1011.24 1011.61 1012.54 1013.13 1013.38 1013.67 1013.89 1013.80 1013.62 1013.63 1014.70 1016.49 1017.47 1018.16 1018.32 1018.54 1018.94 1019.27 1019.89 1020.55 1021.10 1021.52 1022.09 1022.53 1022.71 1023.04 1023.51 1023.92 1024.46 1024.95 1025.16 1025.27 1025.38 1025.44 1025.40 1025.41 1025.32 1025.07 1024.94 1024.75 1024.54 1024.46 1024.21
1014.68 1014.59 1015.03 1015.25 1015.12 1014.62 1013.62 1012.57 1011.97 1011.20 1011.19 1011.12 1011.96 1012.49 1013.30 1013.84 1014.77 1015.57 1016.14 1016.23 1016.70 1018.06 1018.91 1019.57 1019.77 1019.92 1019.98 1020.08 1020.27 1020.63 1021.21 1021.58 1021.91 1022.02 1022.63 1023.50 1024.06 1024.31 1024.95 1025.34 1025.51 1025.74 1025.92 1026.00 1026.04 1025.95 1025.73 1025.57 1025.24 1024.94 1024.74 1024.43 1024.14 1023.84
1013.50 1013.85 1014.42 1014.93 1014.40 1013.19 1012.41 1011.30 1011.06 1010.45 1010.44 1010.51 1011.15 1011.87 1013.12 1014.44 1015.77 1016.98 1017.39 1017.89 1019.56 1020.46 1020.43 1020.49 1020.68 1020.75 1020.83 1020.95 1021.12 1021.40 1022.02 1022.30 1022.63 1023.00 1023.45 1024.02 1024.92 1025.40 1025.75 1025.99 1026.05 1026.34 1026.44 1026.47 1026.38 1026.22 1025.84 1025.33 1025.09 1024.84 1024.58 1024.29 1023.87 1023.53
1013.27 1013.26 1012.99 1013.03 1013.04 1011.96 1011.21 1010.70 1010.54 1010.20 1010.24 1010.39 1010.70 1012.25 1014.04 1015.56 1016.85 1017.45 1019.10 1020.61 1021.34 1021.51 1021.31 1021.25 1021.35 1021.44 1021.58 1021.81 1022.07 1022.53 1022.83 1023.20 1023.80 1024.20 1024.63 1025.09 1025.44 1025.73 1026.11 1026.39 1026.45 1026.65 1026.69 1026.52 1026.20 1025.93 1025.56 1025.11 1024.88 1024.68 1024.38 1024.00 1023.62 1023.26
1012.79 1012.46 1011.96 1011.52 1011.48 1011.26 1010.80 1010.57 1010.38 1010.32 1010.43 1010.95 1011.90 1013.46 1014.97 1016.42 1017.60 1018.97 1020.65 1021.89 1022.37 1022.15 1022.00 1021.97 1021.94 1022.21 1022.60 1022.92 1023.29 1023.72 1024.11 1024.29 1024.69 1025.14 1025.36 1025.72 1026.22 1026.64 1026.64 1026.80 1026.81 1026.74 1026.60 1026.38 1026.00 1025.67 1025.30 1025.03 1024.77 1024.51 1024.15 1023.79 1023.37 1023.00
1012.06 1011.49 1011.13 1010.89 1010.71 1010.87 1010.73 1010.69 1010.65 1010.57 1011.18 1011.84 1012.98 1014.32 1015.47 1016.53 1018.21 1020.08 1021.46 1022.62 1022.83 1022.89 1022.84 1022.73 1022.68 1022.82 1023.42 1024.05 1024.56 1024.90 1024.98 1025.00 1025.43 1025.94 1026.23 1026.17 1026.61 1026.98 1027.21 1027.10 1026.92 1026.66 1026.28 1026.17 1025.94 1025.62 1025.24 1024.88 1024.57 1024.25 1023.84 1023.43 1023.03 1022.53
1010.91 1010.20 1010.21 1009.59 1009.59 1009.87 1009.92 1010.24 1010.62 1010.89 1011.91 1013.30 1014.01 1015.01 1016.09 1017.48 1019.39 1021.26 1022.22 1022.82 1023.14 1023.37 1023.51 1023.48 1023.47 1023.74 1024.32 1024.81 1025.41 1025.69 1025.89 1025.89 1025.88 1026.38 1026.76 1026.64 1026.74 1027.05 1027.25 1027.18 1026.96 1026.65 1025.96 1025.86 1025.72 1025.38 1025.03 1024.64 1024.28 1023.91 1023.50 1023.05 1022.61 1022.15
1009.44 1009.57 1009.88 1010.45 1010.38 1010.41 1011.26 1011.77 1011.88 1012.61 1013.70 1014.45 1014.93 1015.92 1017.15 1019.19 1021.16 1022.55 1023.12 1023.33 1023.51 1023.80 1023.99 1024.13 1024.19 1024.39 1025.07 1025.72 1025.99 1026.14 1026.12 1026.05 1026.20 1026.59 1026.74 1026.80 1026.78 1026.74 1026.80 1026.87 1026.63 1026.37 1025.85 1025.55 1025.25 1025.05 1024.80 1024.42 1024.03 1023.60 1023.16 1022.67 1022.24 1021.79
1009.47 1010.31 1011.01 1012.21 1012.53 1013.07 1013.27 1014.22 1014.91 1015.82 1016.30 1016.77 1016.59 1018.02 1019.31 1020.84 1022.30 1023.04 1023.34 1023.68 1023.85 1024.15 1024.37 1024.47 1024.65 1025.06 1025.59 1026.01 1026.31 1026.43 1026.58 1026.59 1026.68 1026.73 1026.77 1026.87 1026.78 1026.64 1026.52 1026.42 1026.23 1025.91 1025.60 1025.32 1025.10 1024.80 1024.48 1024.13 1023.73 1023.31 1022.86 1022.39 1021.92 1021.42
1011.12 1012.12 1012.78 1014.35 1015.02 1016.03 1017.04 1017.42 1017.94 1018.23 1018.58 1018.38 1018.92 1020.38 1021.62 1022.43 1023.11 1023.39 1023.82 1024.02 1024.17 1024.43 1025.03 1025.66 1026.10 1026.09 1026.40 1026.58 1026.65 1026.75 1026.77 1026.85 1027.01 1027.16 1027.14 1027.22 1027.14 1026.88 1026.47 1026.29 1026.00 1025.70 1025.41 1025.16 1024.79 1024.45 1024.13 1023.82 1023.47 1023.08 1022.64 1022.20 1021.70 1021.21
1013.00 1013.67 1014.91 1016.55 1017.60 1019.06 1019.80 1019.64 1019.51 1019.26 1019.41 1019.66 1020.24 1021.45 1022.62 1023.54 1024.00 1023.87 1024.08 1024.42 1024.84 1025.50 1025.88 1026.12 1026.44 1026.57 1027.06 1027.15 1027.25 1027.10 1026.96 1026.77 1026.81 1027.06 1027.12 1027.08 1026.89 1026.61 1026.30 1025.99 1025.79 1025.48 1025.16 1024.88 1024.62 1024.27 1023.89 1023.57 1023.21 1022.86 1022.44 1022.03 1021.55 1021.05
1013.56 1014.77 1016.43 1018.08 1019.71 1020.88 1020.94 1020.83 1020.66 1020.67 1020.89 1021.28 1022.14 1022.55 1023.64 1024.37 1024.82 1025.11 1025.24 1025.41 1025.69 1026.00 1026.32 1026.75 1026.84 1026.79 1026.88 1027.06 1027.19 1027.18 1027.22 1026.99 1026.78 1026.62 1026.46 1026.42 1026.38 1026.23 1025.95 1025.87 1025.60 1025.38 1025.12 1024.87 1024.61 1024.36 1024.04 1023.64 1023.23 1022.81 1022.39 1021.96 1021.46 1020.99
1014.61 1015.71 1017.09 1018.72 1020.27 1021.06 1021.09 1021.36 1021.87 1022.47 1022.97 1023.21 1023.73 1023.93 1024.47 1024.99 1025.69 1025.91 1026.10 1026.02 1026.20 1026.62 1026.73 1026.75 1026.89 1026.96 1026.84 1026.79 1026.81 1026.84 1026.80 1026.86 1026.70 1026.44 1026.25 1026.22 1026.24 1026.04 1025.89 1025.75 1025.52 1025.19 1025.09 1024.91 1024.66 1024.38 1024.05 1023.67 1023.21 1022.76 1022.39 1021.91 1021.46 1020.94
1016.42 1017.11 1018.00 1019.06 1020.07 1020.45 1021.00 1021.47 1022.58 1023.45 1023.89 1024.22 1024.48 1024.51 1024.85 1025.40 1026.01 1026.27 1026.31 1026.43 1026.54 1026.66 1026.85 1026.93 1026.90 1026.84 1026.84 1026.87 1026.91 1026.99 1026.92 1026.79 1026.59 1026.46 1026.37 1026.35 1026.32 1026.21 1026.04 1025.79 1025.45 1025.28 1025.19 1024.97 1024.62 1024.29 1023.98 1023.59 1023.20 1022.83 1022.36 1021.91 1021.39 1020.84
Wind_Speed
14 13 13 14 17 18 17 18 18 17 17 17 17 16 15 13 12 5 5 3 1 3 8 5 4 3 2 1 0 4 5 5 4 4 3 2 3 4 2 2 0 1 1 2 1 2 3 3 3 0 4 1 1 2
15 13 13 13 16 17 17 16 17 17 16 16 16 16 15 12 9 5 3 2 1 3 8 3 12 16 11 11 3 2 4 4 5 5 1 3 3 1 2 3 2 1 5 3 6 5 3 5 3 4 3 2 2 4
16 16 14 14 15 17 18 17 16 16 16 16 15 16 16 13 8 2 3 3 2 3 7 3 6 4 4 13 10 4 3 4 3 5 5 3 4 5 4 5 2 3 3 3 0 2 4 6 5 4 4 1 2 4
17 17 15 14 15 17 18 17 16 16 16 16 15 15 15 13 9 5 3 2 1 2 3 9 2 7 6 7 7 6 2 2 5 3 3 3 2 3 2 3 3 3 2 3 3 2 1 5 6 6 12 10 9 7
17 16 16 16 16 17 18 18 16 15 15 16 16 15 14 13 13 9 7 5 6 3 4 7 11 7 6 9 10 8 6 3 3 1 3 3 3 4 1 1 2 3 2 1 2 6 4 4 5 8 11 6 9 11
13 14 16 17 17 18 18 19 16 15 15 16 17 16 14 11 12 4 5 1 5 4 1 5 6 6 1 5 7 7 5 3 3 4 3 1 3 4 4 2 1 3 2 3 2 4 1 3 5 8 9 8 11 13
13 14 16 17 19 18 18 18 16 15 15 15 16 15 14 9 1 3 4 1 3 1 2 5 6 6 1 4 2 3 1 2 2 3 0 2 1 4 3 2 4 3 3 4 2 1 2 5 5 7 10 10 13 13
15 15 17 18 19 17 17 18 15 15 15 15 16 17 15 12 10 8 8 19 9 2 1 3 6 6 3 1 3 2 3 3 5 2 1 3 3 3 4 3 3 2 6 10 9 8 6 7 11 11 9 9 14 14
16 16 17 18 19 17 17 16 14 14 14 15 17 21 5 2 3 6 2 10 7 3 3 3 3 5 4 2 2 3 3 3 3 2 1 4 3 4 2 2 3 3 4 8 9 13 12 14 11 11 11 13 14 11
15 16 18 19 19 16 15 13 13 12 13 13 5 2 4 5 8 6 4 3 3 5 4 4 2 5 3 1 1 3 2 3 2 3 2 4 2 5 6 0 4 4 2 9 6 7 9 10 11 11 12 11 10 9
17 17 19 18 18 16 11 10 9 9 7 2 2 4 4 9 3 3 3 4 3 4 5 6 11 11 2 3 4 4 4 3 3 3 4 2 3 3 6 13 14 16 17 15 13 13 11 9 8 9 10 9 9 9
20 21 19 17 17 15 11 9 5 1 2 2 5 5 4 3 1 3 5 3 5 7 4 5 6 8 4 4 4 2 4 2 3 4 4 2 4 7 8 14 13 12 15 12 11 13 11 10 9 8 7 6 7 7
18 18 18 17 17 14 10 9 8 9 8 2 2 4 3 3 1 6 7 4 3 4 3 1 3 4 1 1 3 4 4 3 5 4 2 2 10 7 9 9 12 11 12 10 12 13 14 12 11 9 7 6 6 9
18 18 17 17 16 12 10 8 7 3 2 3 4 5 6 5 6 6 5 5 5 3 2 1 3 3 1 2 2 4 1 3 4 3 3 3 6 10 10 9 10 10 9 10 10 11 12 10 9 9 8 8 8 6
17 17 16 16 14 11 9 8 7 3 2 5 3 6 8 5 3 3 1 0 2 1 0 1 2 2 3 4 3 4 4 3 3 3 3 5 8 8 9 9 8 7 8 8 8 10 9 7 6 6 6 5 5 3
17 12 10 15 13 12 10 6 4 2 4 4 6 4 4 1 3 1 2 1 1 0 1 3 2 4 3 2 5 4 3 2 3 4 5 7 9 8 7 6 8 6 5 7 8 7 6 5 5 4 5 5 2 3
18 5 12 20 16 12 14 4 3 5 5 5 5 3 1 2 3 2 3 2 3 2 2 3 4 3 3 4 3 4 3 4 6 6 5 6 8 6 4 5 7 7 6 5 5 5 4 4 5 5 4 5 3 4
6 5 4 15 15 10 3 3 4 5 7 5 2 3 3 4 3 3 4 4 4 3 4 4 2 7 4 2 3 4 4 7 7 6 5 5 8 6 5 5 6 6 5 5 5 4 4 5 4 2 3 4 5 5
4 1 6 24 7 5 6 5 4 5 8 0 2 3 3 2 4 4 4 5 7 6 5 4 5 3 1 3 9 8 6 4 6 4 4 3 2 4 5 7 6 5 5 3 3 2 1 1 1 2 3 3 3 4
8 6 12 3 3 3 5 5 4 4 3 5 2 2 2 3 0 6 10 8 6 5 6 5 4 3 3 5 5 6 5 6 6 5 3 2 2 5 8 6 4 4 5 4 3 3 3 3 3 3 4 3 2 5
4 3 7 3 2 4 4 3 4 3 4 5 5 5 3 2 4 5 5 5 6 5 4 4 4 5 6 6 5 5 4 3 2 2 3 4 4 6 5 4 5 4 3 3 3 4 4 3 4 4 4 4 4 4
4 15 4 3 4 4 5 4 3 2 2 3 5 3 4 4 3 3 2 8 5 4 3 3 4 5 7 8 6 6 9 8 7 6 8 6 4 4 3 2 4 3 3 2 2 3 4 4 4 4 3 4 5 5
7 3 3 4 5 3 5 1 1 1 2 2 3 5 4 4 3 1 5 4 3 3 3 3 4 7 9 9 11 10 10 10 7 5 5 4 4 4 4 4 3 4 3 3 2 4 4 5 4 3 4 5 4 5
4 4 6 7 5 3 1 1 1 1 2 3 4 4 4 3 2 5 5 3 2 2 3 4 3 6 6 7 6 5 5 5 5 5 3 5 5 3 3 3 2 1 2 3 4 4 4 4 5 4 5 5 6 6
2 3 3 1 3 3 3 4 1 1 4 3 4 3 3 3 4 4 3 3 1 2 3 3 3 4 6 4 3 3 4 4 5 5 3 3 4 3 3 1 2 2 2 4 5 5 5 4 4 5 6 7 7 9
8 7 8 5 3 6 5 4 6 5 7 4 3 4 3 3 4 4 2 2 2 2 2 4 3 5 4 4 4 2 1 1 4 5 2 3 4 4 2 2 3 5 4 3 3 4 5 5 5 7 7 9 9 10
2 3 3 4 4 2 5 4 5 7 4 3 2 4 3 5 4 2 1 1 2 2 2 2 2 3 5 4 3 2 2 3 4 4 3 3 3 3 3 1 3 4 5 5 4 4 6 7 7 8 8 7 7 8
4 6 6 8 7 9 6 6 6 6 4 5 3 7 4 4 3 2 2 2 3 3 3 5 5 6 5 4 4 4 3 3 4 3 2 2 0 1 1 3 4 9 5 5 5 5 5 6 7 8 8 9 9 8
6 4 6 9 7 8 9 7 5 4 4 3 4 3 3 3 2 2 2 3 3 5 8 6 4 4 5 4 4 3 2 3 3 2 1 3 3 4 3 4 4 4 4 4 7 6 8 7 7 7 9 8 8 8
5 4 6 9 8 8 6 6 5 5 3 2 4 8 5 4 3 2 3 6 7 5 4 4 3 4 4 4 1 3 3 1 3 3 2 4 4 4 4 4 4 5 5 5 5 6 7 5 6 6 7 8 7 8
5 4 7 7 6 6 7 8 10 11 11 12 9 11 6 3 3 4 4 3 5 5 5 4 4 2 4 3 2 2 3 3 3 4 3 3 3 4 5 4 4 4 4 5 5 5 6 7 6 8 9 10 12 12
5 5 7 7 8 8 6 6 7 8 5 6 5 4 4 5 4 3 1 2 5 5 3 4 3 2 1 2 2 2 3 1 3 3 3 3 4 5 4 4 4 4 4 5 5 6 7 8 8 8 9 12 13 13
15 16 15 11 6 5 3 4 4 3 3 3 3 2 2 3 3 2 2 3 3 4 4 3 3 2 4 5 4 2 2 3 5 5 6 6 4 4 3 4 4 4 5 5 6 6 8 10 8 9 11 12 12 13
Wind_Direction
294 292 293 298 298 302 307 309 311 315 314 316 319 320 322 332 342 5 275 242 72 271 278 234 243 221 339 86 184 286 36 352 44 61 110 187 192 233 290 270 106 183 110 273 35 260 347 69 83 90 226 297 108 49
293 290 292 290 291 296 303 305 304 310 308 309 312 315 318 325 337 1 298 321 26 208 254 286 251 245 223 224 143 287 201 181 185 94 154 119 226 167 181 298 12 324 187 197 166 238 255 283 266 269 184 130 98 125
286 291 291 289 286 292 296 303 300 305 303 304 306 310 313 316 323 328 272 285 327 286 294 322 256 250 209 213 192 171 266 184 176 175 154 172 240 136 170 237 185 263 179 236 339 294 309 311 291 320 53 360 158 164
283 288 289 287 287 289 292 300 297 300 298 299 302 305 308 309 310 291 235 219 92 267 275 283 318 280 229 159 178 189 219 56 94 106 138 156 200 136 196 181 167 206 11 288 271 322 311 32 36 42 30 4 10 38
278 281 287 289 291 292 295 299 294 295 294 297 300 305 308 312 311 290 234 209 217 166 254 283 304 257 212 175 181 182 204 173 135 124 138 222 153 113 355 75 169 157 202 104 307 325 78 326 325 55 55 26 47 46
267 283 285 289 292 294 294 296 291 290 291 294 301 306 309 313 330 331 327 133 205 182 292 304 283 283 151 188 169 196 186 157 132 154 212 221 324 99 117 149 346 171 220 227 143 323 66 275 18 72 82 51 51 55
257 273 283 286 292 292 291 291 289 287 291 293 298 299 299 296 303 223 214 126 87 349 257 299 292 269 278 147 113 132 84 106 101 80 239 177 45 77 98 117 288 266 242 210 252 212 96 28 65 41 57 56 52 46
254 265 281 283 288 290 291 287 286 285 291 296 298 298 293 281 270 278 242 229 195 281 272 264 269 338 347 27 72 3 60 29 20 144 86 89 29 38 64 295 306 218 93 29 31 49 86 83 61 49 58 67 63 56
254 267 278 284 290 291 288 283 281 285 292 298 302 296 300 161 215 242 275 114 169 165 270 207 242 263 352 27 89 42 64 44 296 74 36 79 351 54 275 255 263 281 76 92 82 77 74 72 68 58 55 58 66 54
251 267 280 285 288 287 281 272 277 287 293 304 298 326 277 213 231 120 271 80 125 221 241 235 238 260 79 352 37 97 50 204 142 245 71 68 91 295 316 102 54 35 190 119 93 76 74 73 72 62 58 65 64 55
256 272 280 281 284 288 269 267 276 311 312 119 238 240 283 305 123 208 228 168 181 232 212 226 212 235 233 162 219 202 176 163 134 233 115 82 115 39 43 71 71 72 67 73 85 83 76 78 84 80 73 70 61 59
265 266 267 272 274 275 257 255 250 216 234 263 270 288 288 288 204 217 205 211 181 218 215 191 220 191 233 141 144 197 165 134 163 159 83 61 98 85 83 82 70 68 88 85 86 87 79 71 65 74 80 82 78 69
252 252 259 264 264 256 244 243 228 234 325 312 237 255 170 237 182 198 202 235 223 221 235 243 242 166 128 142 117 145 148 166 111 56 96 88 119 101 85 85 72 70 74 77 86 85 82 70 53 43 39 27 51 79
244 253 254 253 254 233 230 229 230 238 194 232 222 274 196 211 230 196 200 203 236 207 274 177 243 201 344 97 120 121 115 125 90 119 119 93 95 104 103 96 91 82 80 81 86 94 89 73 58 46 47 69 73 67
246 252 239 244 225 214 211 210 204 177 241 241 205 231 221 231 259 248 276 218 290 297 143 77 56 68 0 77 19 110 70 83 59 83 81 85 78 87 83 72 77 90 83 93 88 90 89 76 73 57 41 72 81 59
233 227 226 215 206 198 180 175 161 219 246 236 235 267 251 78 300 234 235 209 295 306 43 54 71 55 61 37 45 30 86 97 83 77 92 90 80 66 76 71 93 95 78 89 100 98 90 83 83 68 53 56 6 10
194 221 201 198 188 168 160 159 176 225 246 244 248 244 264 238 237 314 33 4 292 57 79 75 63 55 52 63 72 24 45 93 104 94 83 83 108 121 153 138 99 99 86 103 108 99 96 79 65 56 36 335 346 324
202 214 244 167 143 129 163 219 238 238 241 248 261 346 60 341 4 1 6 311 65 45 30 47 5 58 24 106 108 90 90 90 92 96 91 88 83 75 95 111 113 94 111 124 118 105 82 68 53 7 323 303 329 343
144 116 179 154 158 170 167 201 201 253 225 98 50 74 81 97 42 11 10 47 76 67 75 48 57 68 101 53 110 121 121 112 120 99 86 90 81 214 127 109 98 91 91 92 108 112 161 162 277 313 309 292 303 297
55 3 146 160 190 197 223 220 193 246 221 98 282 140 100 76 64 27 22 16 37 55 56 39 38 21 66 72 80 100 107 119 124 129 138 95 124 108 113 112 109 94 75 58 52 34 7 355 329 327 307 289 298 311
117 197 143 157 249 223 249 238 240 201 155 172 144 169 121 74 56 32 19 352 51 33 73 68 76 72 70 72 79 95 97 92 78 84 110 95 69 103 100 85 89 72 72 39 24 346 359 282 273 297 320 326 318 303
207 182 116 193 237 227 231 220 231 251 138 161 142 110 64 58 57 33 14 39 63 24 18 92 88 93 76 64 65 88 96 79 62 69 71 95 97 101 106 123 88 67 46 17 340 318 300 295 311 327 349 317 308 307
140 197 209 165 221 190 254 87 259 38 112 196 66 72 58 62 64 72 74 54 60 6 356 67 72 76 84 76 79 77 76 80 66 61 80 82 79 88 93 82 88 88 35 326 303 299 305 309 330 332 315 313 309 303
228 212 203 192 172 224 122 296 288 244 94 54 61 89 72 102 104 63 72 66 6 353 36 44 76 96 75 70 78 84 81 87 83 61 61 96 84 63 109 105 68 25 249 279 299 316 322 324 317 319 312 304 299 292
104 307 86 276 230 180 207 149 183 51 89 72 92 119 97 100 81 76 86 124 78 43 30 39 55 97 111 93 62 53 8 94 99 94 12 100 109 95 64 356 312 292 298 340 330 317 314 317 307 306 301 299 297 304
214 209 185 203 169 167 170 179 152 158 106 319 66 85 62 70 73 71 76 118 99 88 57 40 51 105 89 103 124 104 98 82 96 87 357 98 107 115 110 19 325 308 300 290 284 306 311 304 300 302 304 308 301 305
199 90 94 27 338 30 93 66 35 59 91 67 80 116 97 72 70 73 83 49 103 108 88 75 58 87 116 116 92 77 73 78 111 138 148 126 129 148 145 172 292 267 292 305 322 321 314 316 312 307 304 309 301 306
60 36 55 4 50 12 54 45 39 37 36 349 31 40 57 69 100 118 114 109 101 95 71 53 66 101 113 118 123 106 73 95 113 101 69 64 154 261 350 319 299 299 320 324 322 309 304 301 307 311 314 316 311 310
43 29 58 39 54 48 35 31 28 13 354 344 84 90 94 61 80 99 94 95 98 104 102 88 41 65 71 68 62 66 88 110 103 93 39 296 315 303 305 297 298 314 313 311 305 303 314 324 313 312 312 310 306 305
49 29 93 45 51 42 18 11 28 30 62 83 102 105 70 43 26 42 74 91 102 98 110 112 126 102 115 120 103 22 359 27 131 144 213 264 251 269 291 306 320 315 316 318 316 317 318 323 315 320 319 321 322 322
97 75 72 63 81 88 81 75 72 68 68 75 75 86 88 115 48 29 63 80 97 98 92 85 67 63 100 114 127 94 5 335 273 296 244 233 267 293 302 323 314 317 321 329 331 325 322 326 320 320 324 326 331 332
44 78 121 104 109 118 116 68 62 67 50 60 50 43 42 51 55 28 285 114 89 81 99 123 109 53 97 122 102 107 147 233 326 309 317 286 311 326 329 328 328 338 346 338 327 320 317 321 323 324 331 331 329 327
92 98 105 103 136 130 131 105 92 86 37 45 27 36 74 108 129 191 24 35 128 142 132 116 111 89 81 87 107 93 30 3 6 10 344 341 349 357 351 345 343 350 349 329 317 319 321 326 329 333 332 328 325 326